Powrót do katalogu

THOR AGENA B R/B

AktywnyUNKNOWN
NORAD 1807·ROCKET BODY·🇺🇸 United States

Wystrzelony Nov 29, 1965 z Vandenberg Space Force Base

Loading…

Następne Przeloty (najbliższe 24 godziny)

TLE

ŚwieżeSource: Space-Track

Epoka: Sep 14, 2026, 03:52 UTC

1 01807U 65098C   26257.16178583  .00000814  00000-0  26661-3 0  9992
2 01807  79.8378 326.0765 1330738 210.0986 141.6724 12.28209243684220

Śledź THOR AGENA B R/B w czasie rzeczywistym z AllMySat

Download on the App Store